Location: Penzberg
(47.7615°N, 11.3159°E)
Time: 10:21:15
(UTC+01:00)

ISS - Pass Details

Date: 13 November 2017
Orbit: 402 x 407 km, 51.6° (Epoch: 21 November)

Event Time Altitude Azimuth Distance (km) Brightness Sun altitude
Exits shadow 05:02:52 44° 60° (ENE) 565 -2.8 -22.6°
Drops below altitude 10° 05:05:26 10° 94° (E) 1,454 0.1 -22.1°
Sets 05:07:32 0° 99° (E) 2,312 1.5 -21.8°
